Windom, MN

8:55 PM CDT on April 28, 2017 (GMT -0500)
Windom Municipal

Weather History for KMWM - February, 2013

Change the Weather History Date:

Monday, February 18, 2013

  Actual Average Record
Temperature  
Mean Temperature 18 °F -  
Max Temperature 35 °F 31 °F 62 °F (1981)
Min Temperature 1 °F 14 °F -18 °F (1993)
Degree Days  
Heating Degree Days 47    
Moisture  
Dew Point 17 °F    
Average Humidity 83    
Maximum Humidity 93    
Minimum Humidity 73    
Precipitation  
Precipitation 0.00 in - - ()
Sea Level Pressure  
Sea Level Pressure 29.68 in    
Wind  
Wind Speed 19 mph (WNW)    
Max Wind Speed 33 mph    
Max Gust Speed 45 mph    
Visibility 7 miles    
Events Snow    
Averages and records for this station are not official NWS values.
T = Trace of Precipitation, MM = Missing Value Source: NWS Daily Summary

Daily Weather History Graph

Daily Weather History Graph

Search for Another Location

Airport or City:

Trip Planner

Search our weather history database for the weather conditions in past years. The results will help you decide how hot, cold, wet, or windy it might be!

Date:

Astronomy

Feb. 18, 2013 Rise Set
Actual Time 7:14 AM CST 5:54 PM CST
Civil Twilight 6:45 AM CST 6:24 PM CST
Nautical Twilight 6:11 AM CST 6:57 PM CST
Astronomical Twilight 5:38 AM CST 7:31 PM CST
Moon 11:35 AM CST (2/18) 2:00 AM CST (2/18)
Length of Visible Light 11h 39m
Length of Day
10h 40m
First Quarter, 58% of the Moon is Illuminated
Feb 18
First Quarter
Feb 25
Full
Mar 4
Last Quarter
Mar 11
New
Mar 19
First Quarter

Hourly Weather History & Observations

Time (CST) Temp. Windchill Dew Point Humidity Pressure Visibility Wind Dir Wind Speed Gust Speed Precip Events Conditions
12:12 AM 35.6 °F 26.2 °F 30.2 °F 81% 29.53 in 10.0 mi South 15.0 mph - N/A   Clear
12:32 AM 35.6 °F 26.6 °F 30.2 °F 81% 29.53 in 10.0 mi South 13.8 mph - N/A   Clear
12:53 AM 35.6 °F 26.6 °F 30.2 °F 81% 29.52 in 10.0 mi SSW 13.8 mph - N/A   Clear
1:12 AM 35.6 °F 27.5 °F 30.2 °F 81% 29.52 in 10.0 mi SSW 11.5 mph - N/A   Clear
1:32 AM 35.6 °F 27.5 °F 30.2 °F 81% 29.53 in 10.0 mi SSW 11.5 mph - N/A   Clear
1:53 AM 33.8 °F 25.3 °F 30.2 °F 87% 29.53 in 10.0 mi SW 11.5 mph - N/A   Clear
2:12 AM 35.6 °F 28.0 °F 32.0 °F 87% 29.54 in 10.0 mi WSW 10.4 mph - N/A   Clear
2:32 AM 35.6 °F 28.6 °F 32.0 °F 87% 29.54 in 10.0 mi West 9.2 mph - N/A   Clear
2:52 AM 33.8 °F 25.8 °F 30.2 °F 87% 29.54 in 10.0 mi West 10.4 mph - N/A   Clear
3:12 AM 33.8 °F 25.3 °F 30.2 °F 87% 29.54 in 10.0 mi West 11.5 mph - N/A   Clear
3:32 AM 33.8 °F 25.3 °F 30.2 °F 87% 29.53 in 10.0 mi WNW 11.5 mph - N/A   Clear
3:52 AM 33.8 °F 25.3 °F 30.2 °F 87% 29.52 in 10.0 mi WNW 11.5 mph - N/A   Clear
4:13 AM 33.8 °F 23.9 °F 30.2 °F 87% 29.52 in 10.0 mi WNW 15.0 mph - N/A   Clear
4:32 AM 35.6 °F 24.5 °F 30.2 °F 81% 29.51 in 10.0 mi WNW 20.7 mph 26.5 mph N/A   Clear
4:52 AM 35.6 °F 25.2 °F 30.2 °F 81% 29.52 in 10.0 mi WNW 18.4 mph 21.9 mph N/A   Clear
5:13 AM 35.6 °F 25.9 °F 30.2 °F 81% 29.52 in 10.0 mi WNW 16.1 mph - N/A   Clear
5:32 AM 33.8 °F 24.3 °F 30.2 °F 87% 29.53 in 10.0 mi WNW 13.8 mph - N/A   Clear
5:52 AM 33.8 °F 25.8 °F 30.2 °F 87% 29.53 in 10.0 mi WNW 10.4 mph - N/A   Clear
6:13 AM 33.8 °F 24.3 °F 30.2 °F 87% 29.54 in 10.0 mi West 13.8 mph - N/A   Clear
6:32 AM 33.8 °F 23.2 °F 30.2 °F 87% 29.54 in 10.0 mi WNW 17.3 mph 20.7 mph N/A   Clear
6:52 AM 33.8 °F 22.8 °F 30.2 °F 87% 29.54 in 10.0 mi WNW 18.4 mph 21.9 mph N/A   Clear
7:13 AM 33.8 °F 23.2 °F 30.2 °F 87% 29.55 in 10.0 mi WNW 17.3 mph - N/A   Clear
7:32 AM 33.8 °F 23.5 °F 30.2 °F 87% 29.56 in 10.0 mi WNW 16.1 mph 24.2 mph N/A   Scattered Clouds
8:32 AM 33.8 °F 21.3 °F 30.2 °F 87% 29.58 in 10.0 mi NW 24.2 mph 33.4 mph N/A   Overcast
8:52 AM 28.4 °F 13.3 °F 26.6 °F 93% 29.59 in 7.0 mi NW 27.6 mph 34.5 mph N/A   Overcast
9:13 AM 26.6 °F 11.1 °F 23.0 °F 86% 29.60 in 10.0 mi NW 26.5 mph 33.4 mph N/A   Overcast
9:32 AM 26.6 °F 9.8 °F 21.2 °F 80% 29.61 in 10.0 mi NW 32.2 mph 41.4 mph N/A   Overcast
9:52 AM 26.6 °F 11.4 °F 21.2 °F 80% 29.62 in 10.0 mi WNW 25.3 mph 31.1 mph N/A   Overcast
10:13 AM 24.8 °F 10.3 °F 21.2 °F 86% 29.65 in 10.0 mi NW 20.7 mph 29.9 mph N/A   Overcast
10:32 AM 24.8 °F 8.4 °F 19.4 °F 80% 29.64 in 10.0 mi NW 27.6 mph 34.5 mph N/A   Overcast
10:52 AM 24.8 °F 8.7 °F 19.4 °F 80% 29.66 in 10.0 mi NW 26.5 mph 33.4 mph N/A   Overcast
11:13 AM 23.0 °F 6.0 °F 19.4 °F 86% 29.66 in 10.0 mi NW 27.6 mph 38.0 mph N/A   Overcast
11:32 AM 23.0 °F 6.3 °F 17.6 °F 80% 29.68 in 10.0 mi NW 26.5 mph 33.4 mph N/A   Overcast
11:52 AM 21.2 °F 3.3 °F 17.6 °F 86% 29.67 in 10.0 mi NW 28.8 mph 36.8 mph N/A   Overcast
12:13 PM 19.4 °F 1.1 °F 15.8 °F 86% 29.67 in 5.0 mi WNW 27.6 mph 35.7 mph N/A Snow Light Snow
12:32 PM 19.4 °F 1.1 °F 15.8 °F 86% 29.68 in 5.0 mi NW 27.6 mph 34.5 mph N/A Snow Light Snow
12:52 PM 19.4 °F 1.1 °F 14.0 °F 80% 29.69 in 7.0 mi NW 27.6 mph 35.7 mph N/A Snow Light Snow
1:12 PM 17.6 °F 0.1 °F 12.2 °F 79% 29.70 in 10.0 mi NW 23.0 mph 36.8 mph N/A Snow Light Snow
1:33 PM 17.6 °F -0.3 °F 12.2 °F 79% 29.71 in 7.0 mi NW 24.2 mph 34.5 mph N/A Snow Light Snow
1:53 PM 17.6 °F -0.3 °F 12.2 °F 79% 29.71 in 10.0 mi WNW 24.2 mph 36.8 mph N/A Snow Light Snow
2:12 PM 17.6 °F -1.6 °F 10.4 °F 73% 29.71 in 7.0 mi WNW 28.8 mph 39.1 mph N/A Snow Light Snow
2:32 PM 17.6 °F -2.2 °F 10.4 °F 73% 29.71 in 7.0 mi WNW 31.1 mph 39.1 mph N/A Snow Light Snow
2:53 PM 17.6 °F -1.9 °F 12.2 °F 79% 29.73 in 5.0 mi WNW 29.9 mph 36.8 mph N/A Snow Light Snow
3:12 PM 15.8 °F -2.7 °F 10.4 °F 79% 29.74 in 7.0 mi NW 24.2 mph 34.5 mph N/A Snow Light Snow
3:32 PM 15.8 °F -4.4 °F 10.4 °F 79% 29.74 in 3.0 mi WNW 29.9 mph 35.7 mph N/A Snow Light Snow
3:53 PM 14.0 °F -7.1 °F 8.6 °F 79% 29.75 in 7.0 mi NW 31.1 mph 38.0 mph N/A Snow Light Snow
4:12 PM 14.0 °F -5.8 °F 8.6 °F 79% 29.77 in 3.0 mi NW 26.5 mph 35.7 mph N/A Snow Light Snow
4:32 PM 12.2 °F -7.5 °F 6.8 °F 79% 29.77 in 10.0 mi WNW 24.2 mph 35.7 mph N/A   Overcast
4:53 PM 12.2 °F -9.3 °F 6.8 °F 79% 29.77 in 5.0 mi WNW 29.9 mph 39.1 mph N/A Snow Light Snow
5:12 PM 12.2 °F -7.1 °F 8.6 °F 85% 29.78 in 2.5 mi NW 23.0 mph 33.4 mph N/A Snow Light Snow
5:32 PM 12.2 °F -5.8 °F 8.6 °F 85% 29.80 in 3.0 mi WNW 19.6 mph 33.4 mph N/A Snow Light Snow
5:52 PM 10.4 °F -11.0 °F 6.8 °F 85% 29.79 in 5.0 mi WNW 27.6 mph 39.1 mph N/A Snow Light Snow
6:12 PM 10.4 °F -11.4 °F 6.8 °F 85% 29.79 in 3.0 mi NW 28.8 mph 33.4 mph N/A Snow Light Snow
6:33 PM 10.4 °F -10.3 °F 6.8 °F 85% 29.81 in 2.0 mi NW 25.3 mph 35.7 mph N/A Snow Light Snow
6:52 PM 10.4 °F -9.9 °F 6.8 °F 85% 29.82 in 2.5 mi NW 24.2 mph 38.0 mph N/A Snow Light Snow
7:12 PM 8.6 °F -13.4 °F 5.0 °F 85% 29.82 in 1.5 mi NW 27.6 mph 39.1 mph N/A Snow Light Snow
7:33 PM 8.6 °F -13.8 °F 5.0 °F 85% 29.80 in 1.5 mi NW 28.8 mph 35.7 mph N/A Snow Light Snow
7:52 PM 8.6 °F -12.3 °F 5.0 °F 85% 29.83 in 1.2 mi NW 24.2 mph 34.5 mph N/A Snow Light Snow
8:12 PM 8.6 °F -13.1 °F 3.2 °F 79% 29.83 in 1.0 mi NW 26.5 mph 36.8 mph N/A Snow Light Snow
8:33 PM 6.8 °F -16.6 °F 3.2 °F 85% 29.81 in 1.2 mi NW 29.9 mph 38.0 mph N/A Snow Light Snow
8:52 PM 6.8 °F -16.6 °F 3.2 °F 85% 29.82 in 0.8 mi NW 29.9 mph 39.1 mph N/A Snow Light Snow
9:12 PM 6.8 °F -16.9 °F 1.4 °F 79% 29.82 in 0.5 mi NW 31.1 mph 44.9 mph N/A Snow Snow
9:33 PM 5.0 °F -20.1 °F 1.4 °F 85% 29.82 in 0.8 mi NW 33.4 mph 41.4 mph N/A Snow Light Snow
9:52 PM 3.2 °F -21.8 °F -0.4 °F 85% 29.84 in 0.8 mi NW 31.1 mph 42.6 mph N/A Snow Light Snow
10:12 PM 3.2 °F -21.8 °F -0.4 °F 85% 29.85 in 1.5 mi NW 31.1 mph 39.1 mph N/A Snow Light Snow
10:33 PM 3.2 °F -21.8 °F -0.4 °F 85% 29.84 in 5.0 mi NW 31.1 mph 40.3 mph N/A   Haze
10:52 PM 3.2 °F -19.9 °F -0.4 °F 85% 29.88 in 3.0 mi NW 25.3 mph 33.4 mph N/A   Overcast
11:12 PM 3.2 °F -19.0 °F -2.2 °F 78% 29.90 in 10.0 mi NW 23.0 mph 36.8 mph N/A   Overcast
11:33 PM 1.4 °F -23.9 °F -2.2 °F 85% 29.89 in 2.0 mi WNW 29.9 mph 38.0 mph N/A Snow Light Snow
11:52 PM 1.4 °F -24.3 °F -4.0 °F 78% 29.89 in 7.0 mi WNW 31.1 mph 39.1 mph N/A   Overcast